Location: Newark
(40.7066°N, 111.8219°W)
Time: 12:17:43
(UTC+00:00)

Envisat - Visible Passes

Search period start: 16 October 2019 00:00
Search period end: 26 October 2019 00:00
Orbit: 764 x 766 km, 98.1° (Epoch: 16 October)

Date Brightness Start Highest point End Pass type
(mag) Time Alt. Az. Time Alt. Az. Time Alt. Az.
16 Oct 3.1 01:36:25 10° SSE 01:41:30 84° WSW 01:46:36 10° NNW visible
17 Oct 5.5 02:40:14 10° SW 02:44:02 21° W 02:47:52 10° NW visible
17 Oct 6.3 13:10:30 10° NE 13:13:29 16° E 13:16:27 10° SE visible
18 Oct 4.1 02:02:10 10° S 02:07:03 47° W 02:11:57 10° NNW visible
19 Oct 2.9 01:25:11 10° SSE 01:30:15 78° ENE 01:35:21 10° N visible
19 Oct 6.2 03:08:06 10° WSW 03:09:50 12° W 03:11:33 10° WNW visible
20 Oct 5.2 02:28:27 10° SSW 02:32:41 27° W 02:36:58 10° NW visible
20 Oct 6.6 13:00:12 10° ENE 13:02:05 12° E 13:03:58 10° ESE visible
21 Oct 3.6 01:50:45 10° S 01:55:45 60° W 02:00:47 10° NNW visible
22 Oct 3.0 01:14:01 10° SSE 01:19:00 61° ENE 01:24:01 10° N visible
22 Oct 6.0 02:55:33 10° SW 02:58:26 15° W 03:01:20 10° NW visible
23 Oct 4.7 02:16:47 10° SSW 02:21:21 34° W 02:25:57 10° NNW visible
24 Oct 3.2 01:39:25 10° S 01:44:28 77° WSW 01:49:34 10° NNW visible
25 Oct 3.2 01:02:56 10° SE 01:07:47 48° ENE 01:12:40 10° N visible
25 Oct 5.6 02:43:28 10° SW 02:47:03 19° W 02:50:40 10° NW visible
25 Oct 6.1 13:13:13 10° NE 13:16:30 17° E 13:19:46 10° SE visible
